[[{"header":{"parameterUnit":"m.s-1","parameterCategory":1,"la1":30.2991,"la2":30.254,"lo1":-89.0895,"lo2":-89.0444,"dy":0.0017,"dx":0.0017,"nx":28,"ny":28,"refTime":"2025-06-18T03:00:00:Z","depth":0,"parameterNumber":2,"parameterNumberName":"U-component_of_WINDS"},"data":[0,0,0,0,0,0,0,0,0,0,0,0,0,0,0,0,0,0,0,0,0,0,0,0,0,0,0,0,0,0,0,0,0,0,0,0,0,0,0,0,0,0,0,0,0,0,0,0,0,0,0,0,0,0,0,0,0,0,2.645,2.645,0,2.6476,2.6476,2.6476,2.6439,2.6437,2.6436,2.6435,2.6461,2.6463,2.6465,0,0,0,0,0,0,0,0,0,0,0,0,0,2.6365,2.6367,2.645,2.645,2.645,2.6476,2.6476,2.6476,2.6439,2.6437,2.6436,2.6434,2.646,2.6462,2.6465,0,0,0,0,0,0,0,0,0,0,0,0,0,2.6398,2.6368,2.645,2.6435,2.6434,2.6476,2.6476,2.6476,2.6439,2.6437,2.6435,2.6433,2.6459,2.6462,2.6465,2.6523,0,0,2.6474,2.6475,0,0,0,0,0,0,0,0,2.6396,2.6401,2.6437,2.6436,2.6435,2.6452,2.6456,2.6492,2.644,2.6437,2.6435,2.6432,2.6459,2.6462,2.6471,2.6524,2.6525,2.6474,2.6476,2.6477,2.6478,0,0,0,0,0,0,0,2.6394,2.64,2.646,2.6437,2.6436,2.6426,2.6428,2.6462,2.6459,2.6437,2.6434,2.6438,2.6458,2.6469,2.6472,2.6526,2.6474,2.6477,2.6478,2.648,2.6623,2.6624,0,0,0,0,0,0,2.6394,2.6398,2.6459,2.6461,2.641,2.6429,2.6432,2.6448,2.6459,2.6458,2.644,2.6436,2.6465,2.6468,2.6473,2.6537,2.6477,2.648,2.6482,2.662,2.6623,2.6625,0,0,0,0,0,0,2.6392,2.6399,2.6458,2.6429,2.6435,2.6433,2.6452,2.645,2.646,2.6461,2.646,2.6451,2.6463,2.6468,2.651,2.6538,2.6481,2.6484,2.6618,2.6621,2.6624,2.667,0,0,0,0,0,0,2.639,2.6399,2.6422,2.6429,2.6437,2.6496,2.6453,2.6452,2.6465,2.6461,2.6471,2.647,2.6462,2.6505,2.6513,2.6541,2.6486,2.6615,2.6619,2.6623,2.6666,2.6674,2.6681,0,0,0,0,0,2.6387,2.6434,2.6423,2.6431,2.6465,2.6497,2.6502,2.6491,2.6468,2.6489,2.6489,2.647,2.6534,2.651,2.6518,2.6547,2.6614,2.6618,2.6623,2.6662,2.6672,2.6681,0,0,0,0,0,0,2.6431,2.6435,2.6423,2.6474,2.6486,2.6491,2.6518,2.6503,2.6521,2.6516,2.6503,2.6505,2.6548,2.6553,2.6525,2.6602,2.657,2.6576,2.6597,2.6607,2.6614,2.6611,2.6489,0,0,0,0,0,2.6447,2.6473,2.6475,2.652,2.6526,2.6522,2.6535,2.6526,2.6537,2.6542,2.6545,2.6556,2.6578,2.6593,2.6614,2.6667,2.6666,2.6691,2.6698,2.6705,2.671,2.6734,2.6744,2.664,2.664,2.664,0,0,2.6479,2.6485,2.6502,2.6529,2.6537,2.6562,2.6526,2.6556,2.6574,2.6546,2.6584,2.6587,2.6598,2.6645,2.6665,2.6649,2.6738,2.6711,2.6716,2.6717,2.674,2.6749,2.6758,2.6644,2.6643,2.6642,0,0,2.6551,2.656,2.6596,2.6604,2.6615,2.6612,2.662,2.6628,2.6628,2.6666,2.6644,2.6666,2.6706,2.6713,2.6723,2.6795,2.6777,2.6802,2.6842,2.6866,2.6874,2.6881,2.6903,2.6912,2.6808,2.6808,2.6808,0,2.659,2.6629,2.6617,2.6647,2.6658,2.6633,2.6669,2.6678,2.6696,2.6703,2.6685,2.6732,2.6739,2.6784,2.6801,2.6811,2.6819,2.68,2.6874,2.6881,2.6887,2.6908,2.6917,2.6811,2.681,2.681,2.681,0,2.6674,2.6701,2.6729,2.6745,2.676,2.6793,2.6785,2.6801,2.679,2.6788,2.6825,2.6832,2.6852,2.6862,2.6853,2.6906,2.6895,2.6876,2.6843,2.69,2.6919,2.6928,2.6815,2.6814,2.6813,2.6812,0,0,2.6774,2.6782,2.6792,2.6797,2.6808,2.6828,2.6859,2.6878,2.689,2.6903,2.6927,2.696,2.6941,2.6952,2.6943,2.6964,2.7017,2.6942,2.6942,2.6953,2.7071,2.7083,2.7093,2.7006,2.7007,2.7008,2.7069,0,2.6843,2.6895,2.6885,2.6936,2.6958,2.6934,2.6961,2.6969,2.6967,2.6986,2.6984,2.7006,2.6982,2.6987,2.7008,2.7006,2.704,2.7002,2.7025,2.7026,2.702,2.7104,2.7118,2.7175,2.7077,2.7079,2.708,0,2.693,2.6944,2.6997,2.7,2.7009,2.7033,2.7048,2.7067,2.7075,2.7072,2.7082,2.7069,2.7098,2.7066,2.7104,2.7079,2.7088,2.7088,2.709,2.709,2.7054,2.7103,2.7193,2.72,2.7092,2.7091,2.709,0,2.6993,2.7026,2.7061,2.7067,2.7072,2.7089,2.7092,2.7098,2.7109,2.7122,2.7129,2.7146,2.7154,2.7167,2.7157,2.7136,2.7196,2.7165,2.7192,2.7192,2.7204,2.7203,2.7294,2.7215,2.7215,2.7215,2.7215,0,2.7069,2.7102,2.7088,2.711,2.7144,2.7132,2.7166,2.7167,2.7172,2.7191,2.7173,2.7192,2.718,2.7197,2.719,2.7221,2.7226,2.7223,2.722,2.7223,2.7222,2.7226,2.7221,2.7217,2.7217,2.7216,2.7216,0,2.7145,2.7138,2.7173,2.7175,2.7176,2.7201,2.7202,2.7221,2.7217,2.7242,2.7247,2.7242,2.7261,2.7253,2.7275,2.727,2.7308,2.7302,2.7305,2.7302,2.7328,2.7325,2.7423,2.7433,2.7351,2.7352,2.7352,0,2.7192,2.7216,2.7219,2.723,2.7234,2.7254,2.7264,2.7252,2.7264,2.7273,2.729,2.7308,2.7321,2.7353,2.735,2.7366,2.7357,2.7391,2.736,2.736,2.7354,2.7351,2.7352,2.7396,2.7397,2.7398,2.7399,0,2.7276,2.727,2.7286,2.7299,2.7312,2.7322,2.7331,2.7342,2.733,2.7344,2.7362,2.7373,2.7393,2.741,2.7423,2.7425,2.7409,2.7409,2.7415,2.7417,2.7416,2.7413,2.7318,2.7406,2.7405,2.7405,2.7404,2.7404,2.7336,2.7355,2.7359,2.7376,2.7381,2.7389,2.7405,2.7403,2.7419,2.7433,2.7426,2.7447,2.7452,2.7468,2.7472,2.7488,2.7475,2.7485,2.7487,2.7489,2.7491,2.7416,2.7491,2.7491,2.7491,2.749,2.749,0,2.7415,2.7416,2.7432,2.7444,2.7457,2.7441,2.7449,2.7461,2.7479,2.7485,2.7498,2.7518,2.7534,2.7532,2.7546,2.7559,2.7552,2.7563,2.756,2.756,2.7504,2.7495,2.7568,2.7568,2.7568,2.7568,2.7568,2.7568,2.7458,2.7487,2.7482,2.7513,2.7514,2.7534,2.7539,2.7546,2.755,2.7573,2.7586,2.7584,2.7587,2.76,2.7613,2.7612,2.7617,2.763,2.7626,2.7573,2.7565,2.7557,2.7549,2.7632,2.7632,2.7681,2.7681,2.7681]},{"header":{"parameterUnit":"m.s-1","parameterCategory":1,"la1":30.2991,"la2":30.254,"lo1":-89.0895,"lo2":-89.0444,"dy":0.0017,"dx":0.0017,"nx":28,"ny":28,"refTime":"2025-06-18T03:00:00:Z","depth":0,"parameterNumber":3,"parameterNumberName":"V-component_of_WINDS"},"data":[0,0,0,0,0,0,0,0,0,0,0,0,0,0,0,0,0,0,0,0,0,0,0,0,0,0,0,0,0,0,0,0,0,0,0,0,0,0,0,0,0,0,0,0,0,0,0,0,0,0,0,0,0,0,0,0,0,0,5.0955,5.0956,0,5.106,5.1061,5.1062,5.1013,5.101,5.1008,5.1005,5.1107,5.1112,5.1117,0,0,0,0,0,0,0,0,0,0,0,0,0,5.0706,5.071,5.0955,5.0957,5.0958,5.106,5.1061,5.1063,5.1013,5.101,5.1007,5.1004,5.1105,5.1111,5.1118,0,0,0,0,0,0,0,0,0,0,0,0,0,5.0812,5.0712,5.0955,5.0946,5.0946,5.1059,5.1061,5.1063,5.1014,5.101,5.1006,5.1002,5.1103,5.1111,5.1119,5.1246,0,0,5.1142,5.1146,0,0,0,0,0,0,0,0,5.0806,5.0822,5.0946,5.0947,5.0947,5.1019,5.101,5.1124,5.1015,5.0988,5.1005,5.1,5.1081,5.109,5.1118,5.125,5.1255,5.1143,5.1148,5.1151,5.1153,0,0,0,0,0,0,0,5.0799,5.0817,5.0996,5.0948,5.0948,5.0934,5.0945,5.1032,5.1055,5.099,5.0987,5.1,5.108,5.1111,5.112,5.1256,5.1143,5.115,5.1154,5.1157,5.1494,5.1498,0,0,0,0,0,0,5.0793,5.0811,5.0993,5.1,5.0866,5.0942,5.0954,5.1,5.1054,5.1059,5.1003,5.0997,5.11,5.1111,5.1124,5.1274,5.1151,5.1158,5.1163,5.149,5.1495,5.15,0,0,0,0,0,0,5.0788,5.081,5.0989,5.0904,5.0926,5.095,5.1003,5.1004,5.1035,5.1064,5.1067,5.1031,5.1097,5.1113,5.1215,5.1277,5.1162,5.1169,5.1485,5.1491,5.1497,5.1577,0,0,0,0,0,0,5.0781,5.0808,5.0859,5.0906,5.0931,5.1081,5.1007,5.1009,5.1049,5.1042,5.1091,5.1095,5.1095,5.1204,5.1223,5.1285,5.1175,5.1479,5.1488,5.1495,5.1569,5.1585,5.1599,0,0,0,0,0,5.0772,5.0876,5.0861,5.0884,5.0995,5.1085,5.1099,5.1098,5.1054,5.1104,5.1122,5.1094,5.1267,5.1215,5.1236,5.1302,5.1475,5.1485,5.1495,5.1562,5.1582,5.1599,0,0,0,0,0,0,5.0834,5.0883,5.0866,5.099,5.1034,5.1077,5.1139,5.112,5.1176,5.1167,5.1162,5.1174,5.1279,5.1301,5.1242,5.1425,5.1364,5.1378,5.1408,5.1427,5.1442,5.1434,5.1181,0,0,0,0,0,5.0863,5.0934,5.0971,5.1076,5.1099,5.1116,5.1155,5.115,5.1195,5.1213,5.1239,5.1282,5.1345,5.1387,5.1448,5.1571,5.1579,5.1627,5.1642,5.1654,5.1666,5.173,5.175,5.1531,5.1531,5.1531,0,0,5.0922,5.0957,5.1002,5.109,5.1123,5.1194,5.1132,5.121,5.1262,5.1224,5.1323,5.1343,5.139,5.1503,5.1554,5.1524,5.1728,5.1666,5.1676,5.1681,5.1742,5.1762,5.1781,5.1538,5.1537,5.1536,0,0,5.1065,5.11,5.119,5.1225,5.1277,5.1286,5.1308,5.1353,5.1366,5.1465,5.1437,5.1497,5.1608,5.1642,5.1673,5.1827,5.1801,5.1846,5.1925,5.1988,5.2005,5.202,5.2072,5.2091,5.1858,5.1859,5.1859,0,5.1131,5.124,5.1238,5.1319,5.1357,5.1327,5.1416,5.1449,5.1517,5.1543,5.1509,5.1646,5.1675,5.1794,5.1831,5.1859,5.1881,5.1841,5.2003,5.2018,5.2032,5.2082,5.2102,5.1864,5.1863,5.1863,5.1862,0,5.1317,5.1392,5.1458,5.1526,5.1572,5.1656,5.1665,5.1711,5.1701,5.1714,5.1813,5.1847,5.1913,5.1941,5.1933,5.2058,5.2037,5.2003,5.1941,5.2058,5.2105,5.2124,5.1871,5.1869,5.1868,5.1866,0,0,5.1504,5.1569,5.1593,5.1622,5.1675,5.1732,5.1814,5.1879,5.1917,5.1965,5.2031,5.2124,5.2092,5.2128,5.2123,5.2178,5.2294,5.2137,5.2138,5.2163,5.2431,5.2455,5.2477,5.2278,5.2281,5.2284,5.2426,0,5.165,5.1795,5.1795,5.1927,5.1995,5.1966,5.2036,5.2075,5.2088,5.2146,5.2159,5.2225,5.2179,5.22,5.2253,5.2269,5.2347,5.2259,5.2337,5.234,5.2325,5.2502,5.2529,5.2661,5.2444,5.2448,5.245,0,5.184,5.1894,5.2034,5.2075,5.2104,5.2167,5.2226,5.2282,5.2324,5.2329,5.2369,5.2354,5.2434,5.237,5.2478,5.2418,5.2449,5.2461,5.2466,5.2473,5.2401,5.2512,5.2704,5.2723,5.2479,5.2477,5.2474,0,5.1959,5.2067,5.2164,5.219,5.2242,5.2286,5.2309,5.2348,5.2386,5.2436,5.2461,5.2519,5.2551,5.2595,5.2595,5.2549,5.2704,5.264,5.2708,5.2708,5.2741,5.2739,5.2939,5.2764,5.2764,5.2763,5.2763,0,5.2122,5.2208,5.2218,5.2278,5.2372,5.237,5.2462,5.2481,5.2515,5.2575,5.2553,5.261,5.2608,5.2664,5.2665,5.2753,5.2768,5.2772,5.2771,5.2774,5.2773,5.2794,5.2784,5.2769,5.2768,5.2767,5.2766,0,5.2271,5.2282,5.2386,5.2425,5.2437,5.2505,5.2537,5.2592,5.2603,5.2679,5.2697,5.2713,5.2778,5.2783,5.2858,5.2858,5.2964,5.2954,5.2951,5.2948,5.3015,5.3008,5.3235,5.3263,5.3071,5.3072,5.3074,0,5.2374,5.2439,5.2486,5.2525,5.2551,5.2615,5.2654,5.2653,5.2694,5.2745,5.2794,5.2857,5.2908,5.3013,5.3029,5.3086,5.3075,5.3151,5.3084,5.3083,5.3074,5.307,5.3075,5.3164,5.3166,5.3168,5.3169,0,5.2553,5.2555,5.2613,5.2673,5.272,5.2766,5.2809,5.2842,5.2846,5.2892,5.2959,5.2999,5.3075,5.3137,5.3192,5.3213,5.3191,5.319,5.3208,5.3211,5.3206,5.3207,5.2984,5.3185,5.3183,5.3182,5.3181,5.318,5.2681,5.2737,5.2778,5.2843,5.2875,5.2915,5.2968,5.2985,5.3042,5.3105,5.31,5.3173,5.321,5.3282,5.3307,5.3362,5.3337,5.3364,5.337,5.3377,5.3383,5.3198,5.3373,5.3372,5.3372,5.3371,5.3371,0,5.2858,5.2883,5.2942,5.3003,5.3053,5.3029,5.3075,5.3117,5.3183,5.322,5.327,5.3346,5.3405,5.3426,5.3483,5.3523,5.3514,5.3538,5.3534,5.3539,5.3404,5.3381,5.3544,5.3544,5.3544,5.3544,5.3544,5.3544,5.2956,5.3048,5.3054,5.3161,5.3184,5.3258,5.3285,5.3321,5.3351,5.3436,5.3486,5.35,5.3529,5.3588,5.364,5.3644,5.3666,5.3693,5.3693,5.3566,5.3549,5.3532,5.3511,5.3698,5.3699,5.3824,5.3825,5.3826]}]]